Wadena, MN

9:50 PM CDT on October 18, 2017 (GMT -0500)
Wadena Municipal

Weather History for KADC - May, 2014

Change the Weather History Date:

Monday, May 12, 2014

  Actual Average Record
Temperature  
Mean Temperature 46 °F -  
Max Temperature 51 °F 64 °F 87 °F (1940)
Min Temperature 42 °F 40 °F 17 °F (1946)
Degree Days  
Heating Degree Days 18    
Moisture  
Dew Point 46 °F    
Average Humidity 94    
Maximum Humidity 100    
Minimum Humidity 87    
Precipitation  
Precipitation 0.14 in - - ()
Sea Level Pressure  
Sea Level Pressure 29.80 in    
Wind  
Wind Speed 10 mph (NNW)    
Max Wind Speed 18 mph    
Max Gust Speed 25 mph    
Visibility 6 miles    
Events Rain    
Averages and records for this station are not official NWS values.
T = Trace of Precipitation, MM = Missing Value Source: NWS Daily Summary

Daily Weather History Graph

Daily Weather History Graph

Search for Another Location

Airport or City:

Trip Planner

Search our weather history database for the weather conditions in past years. The results will help you decide how hot, cold, wet, or windy it might be!

Date:

Astronomy

May. 12, 2014 Rise Set
Actual Time 5:50 AM CDT 8:44 PM CDT
Civil Twilight 5:15 AM CDT 9:19 PM CDT
Nautical Twilight 4:31 AM CDT 10:04 PM CDT
Astronomical Twilight 3:38 AM CDT 10:58 PM CDT
Moon 6:35 PM CDT (5/12) 4:39 AM CDT (5/12)
Length of Visible Light 16h 03m
Length of Day
14h 53m
Waxing Gibbous, 95% of the Moon is Illuminated
May 12
Waxing Gibbous
May 14
Full
May 21
Last Quarter
May 28
New
Jun 5
First Quarter

Hourly Weather History & Observations

Time (CDT) Temp. Windchill Dew Point Humidity Pressure Visibility Wind Dir Wind Speed Gust Speed Precip Events Conditions
12:15 AM 51.8 °F - 50.0 °F 94% 29.87 in 7.0 mi North 8.1 mph - 0.03 in Rain Heavy Rain
12:35 AM 51.8 °F - 50.0 °F 94% 29.85 in 7.0 mi North 11.5 mph - 0.05 in Rain Heavy Rain
12:53 AM 51.8 °F - 50.0 °F 94% 29.85 in 5.0 mi NNE 10.4 mph - 0.06 in Rain Light Rain
1:15 AM 51.8 °F - 50.0 °F 94% 29.84 in 5.0 mi North 9.2 mph - N/A   Light Drizzle
1:35 AM 51.8 °F - 50.0 °F 94% 29.82 in 5.0 mi NNE 10.4 mph 17.3 mph N/A   Overcast
1:53 AM 51.8 °F - 50.0 °F 94% 29.83 in 5.0 mi NNE 8.1 mph - N/A   Overcast
2:15 AM 51.8 °F - 50.0 °F 94% 29.81 in 5.0 mi NE 6.9 mph - N/A   Overcast
2:35 AM 51.8 °F - 50.0 °F 94% 29.81 in 7.0 mi NNE 10.4 mph - N/A   Overcast
2:53 AM 51.8 °F - 50.0 °F 94% 29.80 in 7.0 mi NNE 11.5 mph - N/A   Overcast
3:15 AM 51.8 °F - 50.0 °F 94% 29.81 in 7.0 mi North 8.1 mph - N/A   Overcast
3:35 AM 51.8 °F - 51.8 °F 100% 29.81 in 10.0 mi NNE 9.2 mph - N/A   Overcast
3:51 AM 51.8 °F - 50.0 °F 94% 29.81 in 10.0 mi North 6.9 mph - N/A   Light Drizzle
4:15 AM 51.8 °F - 50.0 °F 94% 29.80 in 7.0 mi NNE 9.2 mph - N/A Rain Light Rain
4:35 AM 50.0 °F - 48.2 °F 94% 29.79 in 7.0 mi NNE 10.4 mph 16.1 mph N/A Rain Light Rain
4:52 AM 50.0 °F - 48.2 °F 94% 29.79 in 10.0 mi NNE 11.5 mph - N/A Rain Rain
5:14 AM 50.0 °F - 46.4 °F 87% 29.78 in 10.0 mi NNE 11.5 mph 18.4 mph N/A   Light Drizzle
5:35 AM 48.2 °F - 46.4 °F 93% 29.77 in 10.0 mi NNE 9.2 mph - N/A   Light Drizzle
5:53 AM 48.2 °F - 46.4 °F 93% 29.79 in 10.0 mi North 8.1 mph - N/A   Overcast
6:15 AM 48.2 °F - 46.4 °F 93% 29.79 in 10.0 mi North 11.5 mph 16.1 mph N/A   Overcast
6:35 AM 48.2 °F - 46.4 °F 93% 29.78 in 10.0 mi NNE 13.8 mph - N/A Rain Rain
6:52 AM 48.2 °F - 44.6 °F 87% 29.78 in 7.0 mi North 12.7 mph 18.4 mph N/A Rain Rain
7:14 AM 46.4 °F 42.4 °F 44.6 °F 93% 29.80 in 5.0 mi North 8.1 mph - N/A   Drizzle
7:34 AM 46.4 °F 42.9 °F 44.6 °F 93% 29.80 in 7.0 mi North 6.9 mph - N/A   Light Drizzle
7:53 AM 46.4 °F 42.9 °F 44.6 °F 93% 29.79 in 7.0 mi North 6.9 mph - N/A   Drizzle
8:14 AM 46.4 °F 41.5 °F 44.6 °F 93% 29.78 in 3.0 mi North 10.4 mph - N/A   Drizzle
8:34 AM 46.4 °F 41.1 °F 44.6 °F 93% 29.78 in 2.0 mi NNE 11.5 mph - N/A   Drizzle
9:15 AM 46.4 °F 41.9 °F 46.4 °F 100% 29.79 in 2.0 mi North 9.2 mph - N/A   Overcast
9:35 AM 46.4 °F 42.4 °F 46.4 °F 100% 29.79 in 1.8 mi North 8.1 mph - N/A   Drizzle
9:53 AM 46.4 °F 41.5 °F 46.4 °F 100% 29.79 in 1.8 mi North 10.4 mph - N/A Rain Rain
10:14 AM 46.4 °F 42.4 °F 46.4 °F 100% 29.80 in 2.0 mi North 8.1 mph - N/A   Light Drizzle
10:35 AM 46.4 °F 41.9 °F 46.4 °F 100% 29.81 in 2.0 mi NNE 9.2 mph - N/A   Overcast
10:53 AM 46.4 °F 42.9 °F 46.4 °F 100% 29.80 in 1.8 mi NNE 6.9 mph - N/A   Overcast
11:14 AM 48.2 °F - 46.4 °F 93% 29.80 in 1.8 mi North 10.4 mph - N/A Rain Rain
11:35 AM 48.2 °F - 46.4 °F 93% 29.80 in 2.0 mi North 9.2 mph - N/A   Overcast
11:53 AM 48.2 °F - 46.4 °F 93% 29.80 in 2.0 mi NNW 6.9 mph - N/A   Overcast
12:15 PM 48.2 °F - 46.4 °F 93% 29.80 in 3.0 mi North 8.1 mph - N/A   Overcast
12:34 PM 48.2 °F - 46.4 °F 93% 29.80 in 4.0 mi North 9.2 mph - N/A   Overcast
12:53 PM 48.2 °F - 46.4 °F 93% 29.80 in 3.0 mi North 9.2 mph - N/A   Overcast
1:15 PM 46.4 °F 42.4 °F 46.4 °F 100% 29.80 in 3.0 mi North 8.1 mph - N/A   Overcast
1:35 PM 46.4 °F 42.4 °F 46.4 °F 100% 29.80 in 2.0 mi NNW 8.1 mph - N/A   Overcast
1:52 PM 46.4 °F 41.9 °F 46.4 °F 100% 29.80 in 2.0 mi NNW 9.2 mph - N/A Rain Rain
2:35 PM 46.4 °F 41.5 °F 46.4 °F 100% 29.79 in 4.0 mi NNW 10.4 mph - N/A   Light Drizzle
2:53 PM 46.4 °F 41.9 °F 44.6 °F 93% 29.78 in 10.0 mi NNW 9.2 mph - N/A Rain Rain
3:14 PM 46.4 °F 42.9 °F 44.6 °F 93% 29.79 in 10.0 mi WNW 6.9 mph - N/A   Light Drizzle
3:34 PM 46.4 °F 42.9 °F 44.6 °F 93% 29.80 in 10.0 mi WNW 6.9 mph - N/A   Drizzle
3:53 PM 46.4 °F 41.1 °F 44.6 °F 93% 29.79 in 4.0 mi WNW 11.5 mph - 0.02 in Rain Heavy Rain
4:15 PM 46.4 °F 40.7 °F 44.6 °F 93% 29.78 in 7.0 mi NW 12.7 mph - 0.01 in Rain Rain
4:35 PM 46.4 °F 41.1 °F 44.6 °F 93% 29.79 in 10.0 mi NW 11.5 mph - 0.01 in Rain Light Rain
4:53 PM 46.4 °F 41.1 °F 44.6 °F 93% 29.79 in 7.0 mi WNW 11.5 mph - 0.01 in Rain Rain
5:15 PM 46.4 °F 41.5 °F 44.6 °F 93% 29.80 in 5.0 mi WNW 10.4 mph 17.3 mph 0.03 in Rain Heavy Rain
5:35 PM 46.4 °F 42.4 °F 44.6 °F 93% 29.80 in 10.0 mi NW 8.1 mph - 0.04 in Rain Rain
5:52 PM 46.4 °F 41.1 °F 44.6 °F 93% 29.79 in 10.0 mi NW 11.5 mph - 0.04 in   Light Drizzle
6:14 PM 46.4 °F 41.1 °F 44.6 °F 93% 29.80 in 7.0 mi WNW 11.5 mph - 0.01 in Rain Rain
6:34 PM 46.4 °F 41.1 °F 44.6 °F 93% 29.80 in 5.0 mi WNW 11.5 mph - 0.01 in   Drizzle
6:52 PM 46.4 °F 41.5 °F 44.6 °F 93% 29.81 in 5.0 mi WNW 10.4 mph - 0.01 in   Heavy Drizzle
7:15 PM 46.4 °F 41.1 °F 44.6 °F 93% 29.80 in 2.5 mi WNW 11.5 mph - N/A   Heavy Drizzle
7:35 PM 46.4 °F 41.1 °F 44.6 °F 93% 29.80 in 3.0 mi WNW 11.5 mph - N/A   Heavy Drizzle
7:53 PM 46.4 °F 40.7 °F 44.6 °F 93% 29.79 in 4.0 mi NW 12.7 mph - N/A   Drizzle
8:15 PM 46.4 °F 41.5 °F 44.6 °F 93% 29.80 in 10.0 mi NW 10.4 mph - N/A   Overcast
8:35 PM 46.4 °F 41.5 °F 44.6 °F 93% 29.80 in 10.0 mi NW 10.4 mph - N/A   Overcast
8:53 PM 46.4 °F 40.4 °F 42.8 °F 87% 29.81 in 10.0 mi NW 13.8 mph 20.7 mph N/A   Light Drizzle
9:15 PM 44.6 °F 37.4 °F 42.8 °F 93% 29.81 in 10.0 mi NW 16.1 mph - N/A Rain Rain
9:35 PM 44.6 °F 38.1 °F 42.8 °F 93% 29.81 in 10.0 mi NW 13.8 mph 25.3 mph N/A   Light Drizzle
10:14 PM 42.8 °F 35.1 °F 41.0 °F 93% 29.82 in 10.0 mi NW 16.1 mph 20.7 mph N/A   Light Drizzle
10:34 PM 42.8 °F 35.8 °F 41.0 °F 93% 29.84 in 10.0 mi NW 13.8 mph - N/A Rain Light Rain
10:52 PM 42.8 °F 35.1 °F 39.2 °F 87% 29.83 in 10.0 mi NW 16.1 mph - N/A Rain Light Rain
11:14 PM 42.8 °F 35.8 °F 39.2 °F 87% 29.83 in 10.0 mi NW 13.8 mph - N/A Rain Light Rain
11:35 PM 42.8 °F 36.2 °F 39.2 °F 87% 29.84 in 10.0 mi NW 12.7 mph 21.9 mph N/A   Light Drizzle
11:53 PM 42.8 °F 34.5 °F 39.2 °F 87% 29.84 in 10.0 mi NW 18.4 mph 21.9 mph N/A   Drizzle